Information on these data can be found in provided Readme document
Contact Info: Zachary Fasnacht (zachary.fasnacht@ssaihq.com); Nickolay Krotkov (nickolay.a.krotkov@nasa.gov); Lok Lamsal (lok.lamsal@nasa.gov)

FillValue: -999.
ScaleFactor: 1e15
Units: molecules/cm^2

Date(yyyy-mm-dd),City,Country,LonCenter,LatCenter,BoundingCoordinates,Median,Q1,Q3,Mean,Baseline_Median,Baseline_Q1,Baseline_Q3,Baseline_Mean,NumGoodSamples,NumTotalSamples
2015-01-01,HoChiMinhCity,Vietnam,106.6501,10.7501,[106.1501 10.2501 107.1501 11.2501],1.76,1.2,2.791,2.024,1.847,1.079,2.939,2.005,120.0,492.0
2015-01-02,HoChiMinhCity,Vietnam,106.6501,10.7501,[106.1501 10.2501 107.1501 11.2501],2.056,1.25,2.955,2.221,1.893,1.127,3.029,2.117,112.0,521.0
2015-01-03,HoChiMinhCity,Vietnam,106.6501,10.7501,[106.1501 10.2501 107.1501 11.2501],2.293,1.169,2.955,2.079,2.043,1.123,3.122,2.119,120.0,500.0
2015-01-04,HoChiMinhCity,Vietnam,106.6501,10.7501,[106.1501 10.2501 107.1501 11.2501],2.342,1.24,2.971,2.141,1.965,1.159,3.162,2.151,120.0,521.0
2015-01-05,HoChiMinhCity,Vietnam,106.6501,10.7501,[106.1501 10.2501 107.1501 11.2501],2.406,1.437,2.995,2.294,2.091,1.228,3.296,2.272,109.0,509.0
2015-01-06,HoChiMinhCity,Vietnam,106.6501,10.7501,[106.1501 10.2501 107.1501 11.2501],2.406,1.437,3.005,2.344,2.075,1.205,3.29,2.261,136.0,510.0
2015-01-07,HoChiMinhCity,Vietnam,106.6501,10.7501,[106.1501 10.2501 107.1501 11.2501],2.406,1.437,3.005,2.357,2.11,1.217,3.305,2.3,133.0,525.0
2015-01-08,HoChiMinhCity,Vietnam,106.6501,10.7501,[106.1501 10.2501 107.1501 11.2501],2.569,1.493,3.2,2.501,2.253,1.264,3.338,2.365,153.0,499.0
2015-01-09,HoChiMinhCity,Vietnam,106.6501,10.7501,[106.1501 10.2501 107.1501 11.2501],2.613,1.711,3.256,2.6,2.302,1.318,3.41,2.405,148.0,528.0
2015-01-10,HoChiMinhCity,Vietnam,106.6501,10.7501,[106.1501 10.2501 107.1501 11.2501],2.613,1.711,3.256,2.6,2.185,1.286,3.261,2.333,148.0,475.0
2015-01-11,HoChiMinhCity,Vietnam,106.6501,10.7501,[106.1501 10.2501 107.1501 11.2501],2.701,1.784,3.386,2.654,2.165,1.303,3.325,2.35,135.0,507.0
2015-01-12,HoChiMinhCity,Vietnam,106.6501,10.7501,[106.1501 10.2501 107.1501 11.2501],2.613,1.595,3.234,2.549,2.172,1.285,3.26,2.356,135.0,483.0
2015-01-13,HoChiMinhCity,Vietnam,106.6501,10.7501,[106.1501 10.2501 107.1501 11.2501],2.573,1.595,3.191,2.516,2.298,1.357,3.262,2.414,165.0,503.0
2015-01-14,HoChiMinhCity,Vietnam,106.6501,10.7501,[106.1501 10.2501 107.1501 11.2501],2.569,1.627,3.191,2.478,2.17,1.379,3.236,2.358,169.0,497.0
2015-01-15,HoChiMinhCity,Vietnam,106.6501,10.7501,[106.1501 10.2501 107.1501 11.2501],2.501,1.595,3.191,2.467,2.135,1.371,3.244,2.341,191.0,489.0
2015-01-16,HoChiMinhCity,Vietnam,106.6501,10.7501,[106.1501 10.2501 107.1501 11.2501],2.466,1.493,3.191,2.421,2.132,1.337,3.259,2.346,172.0,508.0
2015-01-17,HoChiMinhCity,Vietnam,106.6501,10.7501,[106.1501 10.2501 107.1501 11.2501],2.611,1.667,3.287,2.516,2.188,1.366,3.27,2.342,191.0,478.0
2015-01-18,HoChiMinhCity,Vietnam,106.6501,10.7501,[106.1501 10.2501 107.1501 11.2501],2.627,1.742,3.657,2.708,2.164,1.367,3.394,2.401,169.0,503.0
2015-01-19,HoChiMinhCity,Vietnam,106.6501,10.7501,[106.1501 10.2501 107.1501 11.2501],2.611,1.794,3.534,2.666,2.198,1.382,3.386,2.408,180.0,479.0
2015-01-20,HoChiMinhCity,Vietnam,106.6501,10.7501,[106.1501 10.2501 107.1501 11.2501],2.613,1.783,3.562,2.688,2.199,1.363,3.367,2.393,177.0,503.0
2015-01-21,HoChiMinhCity,Vietnam,106.6501,10.7501,[106.1501 10.2501 107.1501 11.2501],2.613,1.813,3.534,2.678,2.231,1.384,3.388,2.427,167.0,491.0
2015-01-22,HoChiMinhCity,Vietnam,106.6501,10.7501,[106.1501 10.2501 107.1501 11.2501],2.668,1.861,3.606,2.799,2.241,1.426,3.412,2.446,198.0,493.0
2015-01-23,HoChiMinhCity,Vietnam,106.6501,10.7501,[106.1501 10.2501 107.1501 11.2501],2.541,1.861,3.462,2.702,2.312,1.447,3.431,2.487,178.0,507.0
2015-01-24,HoChiMinhCity,Vietnam,106.6501,10.7501,[106.1501 10.2501 107.1501 11.2501],2.541,1.831,3.462,2.691,2.367,1.462,3.433,2.508,198.0,482.0
2015-01-25,HoChiMinhCity,Vietnam,106.6501,10.7501,[106.1501 10.2501 107.1501 11.2501],2.541,1.831,3.462,2.691,2.353,1.474,3.476,2.522,198.0,530.0
2015-01-26,HoChiMinhCity,Vietnam,106.6501,10.7501,[106.1501 10.2501 107.1501 11.2501],2.378,1.712,3.349,2.54,2.311,1.433,3.392,2.487,211.0,495.0
2015-01-27,HoChiMinhCity,Vietnam,106.6501,10.7501,[106.1501 10.2501 107.1501 11.2501],2.42,1.733,3.435,2.595,2.293,1.398,3.314,2.436,201.0,527.0
2015-01-28,HoChiMinhCity,Vietnam,106.6501,10.7501,[106.1501 10.2501 107.1501 11.2501],2.303,1.65,3.344,2.511,2.211,1.388,3.284,2.402,191.0,503.0
2015-01-29,HoChiMinhCity,Vietnam,106.6501,10.7501,[106.1501 10.2501 107.1501 11.2501],2.303,1.552,3.287,2.489,2.385,1.349,3.361,2.459,212.0,521.0
2015-01-30,HoChiMinhCity,Vietnam,106.6501,10.7501,[106.1501 10.2501 107.1501 11.2501],2.376,1.649,3.287,2.526,2.362,1.242,3.3,2.416,199.0,515.0
2015-01-31,HoChiMinhCity,Vietnam,106.6501,10.7501,[106.1501 10.2501 107.1501 11.2501],2.388,1.65,3.349,2.559,2.274,1.226,3.221,2.322,226.0,505.0
2015-02-01,HoChiMinhCity,Vietnam,106.6501,10.7501,[106.1501 10.2501 107.1501 11.2501],2.282,1.484,3.169,2.489,2.184,1.16,3.089,2.277,207.0,523.0
2015-02-02,HoChiMinhCity,Vietnam,106.6501,10.7501,[106.1501 10.2501 107.1501 11.2501],2.301,1.484,3.087,2.455,2.134,1.121,2.989,2.218,227.0,493.0
2015-02-03,HoChiMinhCity,Vietnam,106.6501,10.7501,[106.1501 10.2501 107.1501 11.2501],2.303,1.443,3.151,2.444,2.09,1.055,2.944,2.171,205.0,521.0
2015-02-04,HoChiMinhCity,Vietnam,106.6501,10.7501,[106.1501 10.2501 107.1501 11.2501],2.077,1.388,2.811,2.252,2.027,1.064,2.84,2.116,210.0,494.0
2015-02-05,HoChiMinhCity,Vietnam,106.6501,10.7501,[106.1501 10.2501 107.1501 11.2501],1.987,1.364,2.692,2.217,1.951,1.04,2.822,2.086,209.0,518.0
2015-02-06,HoChiMinhCity,Vietnam,106.6501,10.7501,[106.1501 10.2501 107.1501 11.2501],1.935,1.278,2.636,2.043,1.909,0.978,2.807,2.04,199.0,506.0
2015-02-07,HoChiMinhCity,Vietnam,106.6501,10.7501,[106.1501 10.2501 107.1501 11.2501],1.935,1.278,2.658,2.071,1.768,0.894,2.728,1.916,228.0,510.0
2015-02-08,HoChiMinhCity,Vietnam,106.6501,10.7501,[106.1501 10.2501 107.1501 11.2501],1.921,1.241,2.574,1.994,1.706,0.883,2.621,1.841,233.0,524.0
2015-02-09,HoChiMinhCity,Vietnam,106.6501,10.7501,[106.1501 10.2501 107.1501 11.2501],1.842,1.128,2.541,1.922,1.69,0.87,2.534,1.797,253.0,497.0
2015-02-10,HoChiMinhCity,Vietnam,106.6501,10.7501,[106.1501 10.2501 107.1501 11.2501],1.933,1.103,2.57,1.977,1.688,0.832,2.58,1.778,240.0,526.0
2015-02-11,HoChiMinhCity,Vietnam,106.6501,10.7501,[106.1501 10.2501 107.1501 11.2501],1.933,1.103,2.57,1.977,1.649,0.811,2.553,1.776,240.0,474.0
2015-02-12,HoChiMinhCity,Vietnam,106.6501,10.7501,[106.1501 10.2501 107.1501 11.2501],1.987,1.241,2.574,2.022,1.591,0.791,2.519,1.741,220.0,508.0
2015-02-13,HoChiMinhCity,Vietnam,106.6501,10.7501,[106.1501 10.2501 107.1501 11.2501],1.937,1.186,2.574,1.963,1.582,0.777,2.508,1.722,202.0,487.0
2015-02-14,HoChiMinhCity,Vietnam,106.6501,10.7501,[106.1501 10.2501 107.1501 11.2501],1.847,1.093,2.541,1.875,1.554,0.782,2.529,1.713,222.0,507.0
2015-02-15,HoChiMinhCity,Vietnam,106.6501,10.7501,[106.1501 10.2501 107.1501 11.2501],1.753,1.022,2.466,1.745,1.56,0.774,2.535,1.71,201.0,500.0
2015-02-16,HoChiMinhCity,Vietnam,106.6501,10.7501,[106.1501 10.2501 107.1501 11.2501],1.722,1.022,2.458,1.722,1.535,0.771,2.508,1.684,214.0,491.0
2015-02-17,HoChiMinhCity,Vietnam,106.6501,10.7501,[106.1501 10.2501 107.1501 11.2501],1.591,0.945,2.425,1.664,1.54,0.764,2.518,1.701,199.0,510.0
2015-02-18,HoChiMinhCity,Vietnam,106.6501,10.7501,[106.1501 10.2501 107.1501 11.2501],1.594,0.948,2.429,1.682,1.57,0.785,2.558,1.71,201.0,480.0
2015-02-19,HoChiMinhCity,Vietnam,106.6501,10.7501,[106.1501 10.2501 107.1501 11.2501],1.519,0.784,2.452,1.644,1.572,0.763,2.596,1.734,179.0,509.0
2015-02-20,HoChiMinhCity,Vietnam,106.6501,10.7501,[106.1501 10.2501 107.1501 11.2501],1.493,0.819,2.153,1.544,1.566,0.774,2.559,1.725,181.0,483.0
2015-02-21,HoChiMinhCity,Vietnam,106.6501,10.7501,[106.1501 10.2501 107.1501 11.2501],1.406,0.755,2.064,1.521,1.537,0.765,2.54,1.703,184.0,506.0
2015-02-22,HoChiMinhCity,Vietnam,106.6501,10.7501,[106.1501 10.2501 107.1501 11.2501],1.303,0.664,2.018,1.403,1.573,0.794,2.519,1.722,176.0,493.0
2015-02-23,HoChiMinhCity,Vietnam,106.6501,10.7501,[106.1501 10.2501 107.1501 11.2501],1.303,0.755,2.046,1.446,1.538,0.866,2.542,1.748,176.0,497.0
2015-02-24,HoChiMinhCity,Vietnam,106.6501,10.7501,[106.1501 10.2501 107.1501 11.2501],1.364,0.819,2.064,1.54,1.527,0.858,2.556,1.766,179.0,509.0
2015-02-25,HoChiMinhCity,Vietnam,106.6501,10.7501,[106.1501 10.2501 107.1501 11.2501],1.402,0.837,2.064,1.545,1.582,0.914,2.572,1.801,195.0,484.0
2015-02-26,HoChiMinhCity,Vietnam,106.6501,10.7501,[106.1501 10.2501 107.1501 11.2501],1.402,0.837,2.064,1.545,1.601,0.9,2.6,1.812,195.0,532.0
2015-02-27,HoChiMinhCity,Vietnam,106.6501,10.7501,[106.1501 10.2501 107.1501 11.2501],1.406,0.927,2.139,1.584,1.682,0.97,2.692,1.879,208.0,496.0
2015-02-28,HoChiMinhCity,Vietnam,106.6501,10.7501,[106.1501 10.2501 107.1501 11.2501],1.427,0.951,2.125,1.592,1.679,0.975,2.668,1.868,195.0,528.0
2015-03-01,HoChiMinhCity,Vietnam,106.6501,10.7501,[106.1501 10.2501 107.1501 11.2501],1.411,0.84,2.081,1.575,1.688,0.973,2.661,1.874,183.0,503.0
2015-03-02,HoChiMinhCity,Vietnam,106.6501,10.7501,[106.1501 10.2501 107.1501 11.2501],1.427,0.84,2.139,1.598,1.712,1.031,2.687,1.904,203.0,524.0
2015-03-03,HoChiMinhCity,Vietnam,106.6501,10.7501,[106.1501 10.2501 107.1501 11.2501],1.519,0.874,2.184,1.638,1.707,1.042,2.66,1.906,200.0,519.0
2015-03-04,HoChiMinhCity,Vietnam,106.6501,10.7501,[106.1501 10.2501 107.1501 11.2501],1.561,0.928,2.228,1.693,1.714,1.054,2.635,1.899,223.0,509.0
2015-03-05,HoChiMinhCity,Vietnam,106.6501,10.7501,[106.1501 10.2501 107.1501 11.2501],1.562,0.998,2.366,1.713,1.755,1.066,2.645,1.914,243.0,527.0
2015-03-06,HoChiMinhCity,Vietnam,106.6501,10.7501,[106.1501 10.2501 107.1501 11.2501],1.576,0.954,2.339,1.708,1.775,1.068,2.61,1.918,263.0,498.0
2015-03-07,HoChiMinhCity,Vietnam,106.6501,10.7501,[106.1501 10.2501 107.1501 11.2501],1.661,1.032,2.521,1.784,1.792,1.086,2.629,1.933,245.0,527.0
2015-03-08,HoChiMinhCity,Vietnam,106.6501,10.7501,[106.1501 10.2501 107.1501 11.2501],1.519,0.954,2.339,1.691,1.769,1.079,2.566,1.911,233.0,502.0
2015-03-09,HoChiMinhCity,Vietnam,106.6501,10.7501,[106.1501 10.2501 107.1501 11.2501],1.641,0.954,2.459,1.761,1.775,1.076,2.583,1.916,251.0,526.0
2015-03-10,HoChiMinhCity,Vietnam,106.6501,10.7501,[106.1501 10.2501 107.1501 11.2501],1.561,0.946,2.496,1.727,1.772,1.058,2.588,1.922,247.0,513.0
2015-03-11,HoChiMinhCity,Vietnam,106.6501,10.7501,[106.1501 10.2501 107.1501 11.2501],1.475,0.898,2.496,1.678,1.688,0.979,2.52,1.85,254.0,519.0
2015-03-12,HoChiMinhCity,Vietnam,106.6501,10.7501,[106.1501 10.2501 107.1501 11.2501],1.629,0.902,2.588,1.748,1.702,0.963,2.563,1.863,264.0,528.0
2015-03-13,HoChiMinhCity,Vietnam,106.6501,10.7501,[106.1501 10.2501 107.1501 11.2501],1.611,0.902,2.588,1.742,1.659,0.899,2.491,1.813,270.0,503.0
2015-03-14,HoChiMinhCity,Vietnam,106.6501,10.7501,[106.1501 10.2501 107.1501 11.2501],1.557,0.84,2.588,1.731,1.615,0.892,2.441,1.787,257.0,533.0
2015-03-15,HoChiMinhCity,Vietnam,106.6501,10.7501,[106.1501 10.2501 107.1501 11.2501],1.557,0.84,2.588,1.731,1.645,0.925,2.478,1.797,257.0,479.0
2015-03-16,HoChiMinhCity,Vietnam,106.6501,10.7501,[106.1501 10.2501 107.1501 11.2501],1.588,0.902,2.659,1.779,1.598,0.917,2.441,1.766,240.0,511.0
2015-03-17,HoChiMinhCity,Vietnam,106.6501,10.7501,[106.1501 10.2501 107.1501 11.2501],1.52,0.898,2.608,1.754,1.573,0.887,2.427,1.77,226.0,486.0
2015-03-18,HoChiMinhCity,Vietnam,106.6501,10.7501,[106.1501 10.2501 107.1501 11.2501],1.489,0.902,2.6,1.773,1.57,0.874,2.521,1.783,250.0,504.0
2015-03-19,HoChiMinhCity,Vietnam,106.6501,10.7501,[106.1501 10.2501 107.1501 11.2501],1.444,0.902,2.464,1.713,1.557,0.882,2.479,1.766,232.0,499.0
2015-03-20,HoChiMinhCity,Vietnam,106.6501,10.7501,[106.1501 10.2501 107.1501 11.2501],1.444,0.879,2.341,1.642,1.542,0.868,2.437,1.739,238.0,488.0
2015-03-21,HoChiMinhCity,Vietnam,106.6501,10.7501,[106.1501 10.2501 107.1501 11.2501],1.439,0.831,2.341,1.632,1.542,0.855,2.402,1.72,233.0,506.0
2015-03-22,HoChiMinhCity,Vietnam,106.6501,10.7501,[106.1501 10.2501 107.1501 11.2501],1.444,0.836,2.371,1.656,1.532,0.854,2.41,1.73,252.0,475.0
2015-03-23,HoChiMinhCity,Vietnam,106.6501,10.7501,[106.1501 10.2501 107.1501 11.2501],1.555,0.879,2.659,1.756,1.575,0.858,2.51,1.777,240.0,503.0
2015-03-24,HoChiMinhCity,Vietnam,106.6501,10.7501,[106.1501 10.2501 107.1501 11.2501],1.452,0.89,2.371,1.661,1.551,0.844,2.499,1.765,212.0,481.0
2015-03-25,HoChiMinhCity,Vietnam,106.6501,10.7501,[106.1501 10.2501 107.1501 11.2501],1.452,0.944,2.251,1.642,1.55,0.836,2.389,1.74,220.0,505.0
2015-03-26,HoChiMinhCity,Vietnam,106.6501,10.7501,[106.1501 10.2501 107.1501 11.2501],1.52,0.983,2.251,1.686,1.641,0.855,2.438,1.81,194.0,489.0
2015-03-27,HoChiMinhCity,Vietnam,106.6501,10.7501,[106.1501 10.2501 107.1501 11.2501],1.444,0.944,2.059,1.59,1.535,0.85,2.359,1.739,187.0,494.0
2015-03-28,HoChiMinhCity,Vietnam,106.6501,10.7501,[106.1501 10.2501 107.1501 11.2501],1.45,0.983,2.059,1.621,1.553,0.871,2.346,1.741,197.0,503.0
2015-03-29,HoChiMinhCity,Vietnam,106.6501,10.7501,[106.1501 10.2501 107.1501 11.2501],1.446,0.947,2.059,1.605,1.538,0.845,2.319,1.72,201.0,481.0
2015-03-30,HoChiMinhCity,Vietnam,106.6501,10.7501,[106.1501 10.2501 107.1501 11.2501],1.446,0.947,2.059,1.605,1.498,0.828,2.332,1.696,201.0,529.0
2015-03-31,HoChiMinhCity,Vietnam,106.6501,10.7501,[106.1501 10.2501 107.1501 11.2501],1.346,0.9,2.006,1.529,1.443,0.838,2.271,1.66,218.0,498.0
2015-04-01,HoChiMinhCity,Vietnam,106.6501,10.7501,[106.1501 10.2501 107.1501 11.2501],1.372,0.944,2.006,1.548,1.421,0.83,2.197,1.603,206.0,531.0
2015-04-02,HoChiMinhCity,Vietnam,106.6501,10.7501,[106.1501 10.2501 107.1501 11.2501],1.305,0.836,1.916,1.433,1.406,0.799,2.172,1.574,187.0,507.0
2015-04-03,HoChiMinhCity,Vietnam,106.6501,10.7501,[106.1501 10.2501 107.1501 11.2501],1.396,0.859,1.971,1.467,1.353,0.778,2.166,1.523,209.0,524.0
2015-04-04,HoChiMinhCity,Vietnam,106.6501,10.7501,[106.1501 10.2501 107.1501 11.2501],1.372,0.836,1.971,1.459,1.336,0.766,2.081,1.491,188.0,521.0
2015-04-05,HoChiMinhCity,Vietnam,106.6501,10.7501,[106.1501 10.2501 107.1501 11.2501],1.373,0.873,1.971,1.465,1.31,0.786,2.015,1.47,182.0,513.0
2015-04-06,HoChiMinhCity,Vietnam,106.6501,10.7501,[106.1501 10.2501 107.1501 11.2501],1.372,0.9,1.837,1.417,1.284,0.785,1.95,1.444,166.0,532.0
2015-04-07,HoChiMinhCity,Vietnam,106.6501,10.7501,[106.1501 10.2501 107.1501 11.2501],1.29,0.806,1.781,1.387,1.262,0.755,1.933,1.395,181.0,501.0
2015-04-08,HoChiMinhCity,Vietnam,106.6501,10.7501,[106.1501 10.2501 107.1501 11.2501],1.289,0.714,1.838,1.384,1.297,0.774,1.979,1.43,170.0,526.0
2015-04-09,HoChiMinhCity,Vietnam,106.6501,10.7501,[106.1501 10.2501 107.1501 11.2501],1.035,0.5,1.697,1.188,1.231,0.717,1.933,1.367,155.0,502.0
2015-04-10,HoChiMinhCity,Vietnam,106.6501,10.7501,[106.1501 10.2501 107.1501 11.2501],1.119,0.526,1.838,1.277,1.251,0.704,1.91,1.369,188.0,529.0
2015-04-11,HoChiMinhCity,Vietnam,106.6501,10.7501,[106.1501 10.2501 107.1501 11.2501],1.119,0.5,1.898,1.278,1.264,0.69,1.973,1.395,184.0,517.0
2015-04-12,HoChiMinhCity,Vietnam,106.6501,10.7501,[106.1501 10.2501 107.1501 11.2501],1.08,0.494,1.898,1.269,1.225,0.691,1.919,1.374,194.0,523.0
2015-04-13,HoChiMinhCity,Vietnam,106.6501,10.7501,[106.1501 10.2501 107.1501 11.2501],1.086,0.5,1.891,1.274,1.226,0.716,1.953,1.386,209.0,529.0
2015-04-14,HoChiMinhCity,Vietnam,106.6501,10.7501,[106.1501 10.2501 107.1501 11.2501],1.184,0.53,1.848,1.301,1.241,0.712,1.882,1.371,227.0,503.0
2015-04-15,HoChiMinhCity,Vietnam,106.6501,10.7501,[106.1501 10.2501 107.1501 11.2501],1.212,0.508,1.989,1.334,1.253,0.723,1.937,1.407,210.0,529.0
2015-04-16,HoChiMinhCity,Vietnam,106.6501,10.7501,[106.1501 10.2501 107.1501 11.2501],1.212,0.508,1.989,1.334,1.262,0.74,1.943,1.424,210.0,476.0
2015-04-17,HoChiMinhCity,Vietnam,106.6501,10.7501,[106.1501 10.2501 107.1501 11.2501],1.212,0.53,2.0,1.379,1.235,0.729,1.918,1.417,195.0,508.0
2015-04-18,HoChiMinhCity,Vietnam,106.6501,10.7501,[106.1501 10.2501 107.1501 11.2501],1.184,0.444,1.938,1.297,1.25,0.744,1.926,1.428,166.0,485.0
2015-04-19,HoChiMinhCity,Vietnam,106.6501,10.7501,[106.1501 10.2501 107.1501 11.2501],1.192,0.517,2.0,1.351,1.286,0.754,1.959,1.447,191.0,502.0
2015-04-20,HoChiMinhCity,Vietnam,106.6501,10.7501,[106.1501 10.2501 107.1501 11.2501],1.184,0.53,2.0,1.345,1.25,0.73,1.935,1.42,189.0,496.0
2015-04-21,HoChiMinhCity,Vietnam,106.6501,10.7501,[106.1501 10.2501 107.1501 11.2501],1.184,0.53,1.936,1.315,1.239,0.724,1.919,1.406,200.0,486.0
2015-04-22,HoChiMinhCity,Vietnam,106.6501,10.7501,[106.1501 10.2501 107.1501 11.2501],1.212,0.544,2.0,1.354,1.252,0.717,1.913,1.401,200.0,504.0
2015-04-23,HoChiMinhCity,Vietnam,106.6501,10.7501,[106.1501 10.2501 107.1501 11.2501],1.258,0.637,2.0,1.372,1.239,0.712,1.856,1.365,220.0,473.0
2015-04-24,HoChiMinhCity,Vietnam,106.6501,10.7501,[106.1501 10.2501 107.1501 11.2501],1.419,0.879,2.118,1.561,1.283,0.784,1.873,1.417,206.0,499.0
2015-04-25,HoChiMinhCity,Vietnam,106.6501,10.7501,[106.1501 10.2501 107.1501 11.2501],1.261,0.871,1.811,1.386,1.262,0.807,1.829,1.402,184.0,471.0
2015-04-26,HoChiMinhCity,Vietnam,106.6501,10.7501,[106.1501 10.2501 107.1501 11.2501],1.261,0.877,1.831,1.397,1.267,0.801,1.821,1.397,194.0,497.0
2015-04-27,HoChiMinhCity,Vietnam,106.6501,10.7501,[106.1501 10.2501 107.1501 11.2501],1.306,0.885,1.872,1.44,1.327,0.85,1.856,1.436,191.0,488.0
2015-04-28,HoChiMinhCity,Vietnam,106.6501,10.7501,[106.1501 10.2501 107.1501 11.2501],1.335,0.941,1.973,1.499,1.294,0.855,1.859,1.429,199.0,493.0
2015-04-29,HoChiMinhCity,Vietnam,106.6501,10.7501,[106.1501 10.2501 107.1501 11.2501],1.335,0.905,2.027,1.497,1.31,0.833,1.922,1.454,204.0,507.0
2015-04-30,HoChiMinhCity,Vietnam,106.6501,10.7501,[106.1501 10.2501 107.1501 11.2501],1.335,0.885,1.982,1.483,1.308,0.815,1.889,1.434,210.0,483.0
2015-05-01,HoChiMinhCity,Vietnam,106.6501,10.7501,[106.1501 10.2501 107.1501 11.2501],1.335,0.885,1.982,1.483,1.307,0.816,1.901,1.437,210.0,529.0
2015-05-02,HoChiMinhCity,Vietnam,106.6501,10.7501,[106.1501 10.2501 107.1501 11.2501],1.374,0.941,1.893,1.487,1.312,0.827,1.913,1.44,220.0,496.0
2015-05-03,HoChiMinhCity,Vietnam,106.6501,10.7501,[106.1501 10.2501 107.1501 11.2501],1.379,0.944,1.893,1.506,1.342,0.87,1.949,1.462,217.0,530.0
2015-05-04,HoChiMinhCity,Vietnam,106.6501,10.7501,[106.1501 10.2501 107.1501 11.2501],1.335,0.889,1.848,1.425,1.334,0.838,1.961,1.447,196.0,507.0
2015-05-05,HoChiMinhCity,Vietnam,106.6501,10.7501,[106.1501 10.2501 107.1501 11.2501],1.348,0.896,1.871,1.427,1.334,0.873,1.968,1.465,201.0,525.0
2015-05-06,HoChiMinhCity,Vietnam,106.6501,10.7501,[106.1501 10.2501 107.1501 11.2501],1.371,0.905,1.882,1.453,1.344,0.889,1.982,1.466,195.0,520.0
2015-05-07,HoChiMinhCity,Vietnam,106.6501,10.7501,[106.1501 10.2501 107.1501 11.2501],1.362,0.896,1.882,1.43,1.378,0.908,1.997,1.491,205.0,514.0
2015-05-08,HoChiMinhCity,Vietnam,106.6501,10.7501,[106.1501 10.2501 107.1501 11.2501],1.374,0.905,1.893,1.44,1.382,0.93,1.995,1.495,205.0,532.0
2015-05-09,HoChiMinhCity,Vietnam,106.6501,10.7501,[106.1501 10.2501 107.1501 11.2501],1.362,0.905,1.893,1.437,1.373,0.925,1.995,1.497,223.0,502.0
2015-05-10,HoChiMinhCity,Vietnam,106.6501,10.7501,[106.1501 10.2501 107.1501 11.2501],1.383,1.007,2.01,1.52,1.374,0.943,2.025,1.513,208.0,532.0
2015-05-11,HoChiMinhCity,Vietnam,106.6501,10.7501,[106.1501 10.2501 107.1501 11.2501],1.391,1.074,1.887,1.466,1.391,0.934,1.998,1.486,204.0,506.0
2015-05-12,HoChiMinhCity,Vietnam,106.6501,10.7501,[106.1501 10.2501 107.1501 11.2501],1.384,1.017,1.759,1.412,1.384,0.911,1.948,1.463,220.0,527.0
2015-05-13,HoChiMinhCity,Vietnam,106.6501,10.7501,[106.1501 10.2501 107.1501 11.2501],1.383,1.007,1.716,1.37,1.406,0.92,1.927,1.465,193.0,520.0
2015-05-14,HoChiMinhCity,Vietnam,106.6501,10.7501,[106.1501 10.2501 107.1501 11.2501],1.379,1.007,1.716,1.37,1.413,0.893,1.906,1.458,194.0,521.0
2015-05-15,HoChiMinhCity,Vietnam,106.6501,10.7501,[106.1501 10.2501 107.1501 11.2501],1.383,1.017,1.726,1.39,1.411,0.923,1.903,1.465,192.0,535.0
2015-05-16,HoChiMinhCity,Vietnam,106.6501,10.7501,[106.1501 10.2501 107.1501 11.2501],1.38,0.929,1.726,1.38,1.403,0.886,1.875,1.451,207.0,511.0
2015-05-17,HoChiMinhCity,Vietnam,106.6501,10.7501,[106.1501 10.2501 107.1501 11.2501],1.359,0.889,1.726,1.361,1.388,0.856,1.898,1.434,197.0,537.0
2015-05-18,HoChiMinhCity,Vietnam,106.6501,10.7501,[106.1501 10.2501 107.1501 11.2501],1.359,0.889,1.726,1.361,1.327,0.791,1.833,1.381,197.0,483.0
2015-05-19,HoChiMinhCity,Vietnam,106.6501,10.7501,[106.1501 10.2501 107.1501 11.2501],1.384,0.964,1.795,1.418,1.32,0.781,1.84,1.354,186.0,515.0
2015-05-20,HoChiMinhCity,Vietnam,106.6501,10.7501,[106.1501 10.2501 107.1501 11.2501],1.361,0.926,1.759,1.399,1.327,0.783,1.834,1.359,186.0,491.0
2015-05-21,HoChiMinhCity,Vietnam,106.6501,10.7501,[106.1501 10.2501 107.1501 11.2501],1.359,0.926,1.753,1.387,1.35,0.796,1.848,1.369,208.0,508.0
2015-05-22,HoChiMinhCity,Vietnam,106.6501,10.7501,[106.1501 10.2501 107.1501 11.2501],1.359,0.929,1.713,1.395,1.279,0.743,1.762,1.307,183.0,499.0
2015-05-23,HoChiMinhCity,Vietnam,106.6501,10.7501,[106.1501 10.2501 107.1501 11.2501],1.358,0.929,1.678,1.373,1.256,0.733,1.777,1.318,167.0,489.0
2015-05-24,HoChiMinhCity,Vietnam,106.6501,10.7501,[106.1501 10.2501 107.1501 11.2501],1.361,0.973,1.678,1.366,1.302,0.767,1.812,1.325,168.0,505.0
2015-05-25,HoChiMinhCity,Vietnam,106.6501,10.7501,[106.1501 10.2501 107.1501 11.2501],1.293,0.843,1.629,1.29,1.273,0.72,1.734,1.292,187.0,475.0
2015-05-26,HoChiMinhCity,Vietnam,106.6501,10.7501,[106.1501 10.2501 107.1501 11.2501],1.087,0.614,1.795,1.242,1.239,0.644,1.818,1.298,166.0,503.0
2015-05-27,HoChiMinhCity,Vietnam,106.6501,10.7501,[106.1501 10.2501 107.1501 11.2501],1.173,0.663,1.735,1.242,1.232,0.611,1.791,1.281,136.0,476.0
2015-05-28,HoChiMinhCity,Vietnam,106.6501,10.7501,[106.1501 10.2501 107.1501 11.2501],1.192,0.678,1.76,1.298,1.267,0.592,1.822,1.311,170.0,496.0
2015-05-29,HoChiMinhCity,Vietnam,106.6501,10.7501,[106.1501 10.2501 107.1501 11.2501],1.218,0.724,1.76,1.304,1.289,0.673,1.839,1.323,162.0,487.0
2015-05-30,HoChiMinhCity,Vietnam,106.6501,10.7501,[106.1501 10.2501 107.1501 11.2501],1.228,0.737,1.762,1.313,1.292,0.681,1.832,1.325,172.0,487.0
2015-05-31,HoChiMinhCity,Vietnam,106.6501,10.7501,[106.1501 10.2501 107.1501 11.2501],1.218,0.712,1.762,1.311,1.288,0.639,1.815,1.309,171.0,502.0
2015-06-01,HoChiMinhCity,Vietnam,106.6501,10.7501,[106.1501 10.2501 107.1501 11.2501],1.218,0.633,1.762,1.316,1.256,0.641,1.816,1.339,191.0,477.0
2015-06-02,HoChiMinhCity,Vietnam,106.6501,10.7501,[106.1501 10.2501 107.1501 11.2501],1.218,0.633,1.762,1.316,1.261,0.627,1.826,1.328,191.0,524.0
2015-06-03,HoChiMinhCity,Vietnam,106.6501,10.7501,[106.1501 10.2501 107.1501 11.2501],1.237,0.678,1.735,1.311,1.261,0.667,1.833,1.349,197.0,490.0
2015-06-04,HoChiMinhCity,Vietnam,106.6501,10.7501,[106.1501 10.2501 107.1501 11.2501],1.282,0.678,1.735,1.324,1.223,0.675,1.822,1.326,185.0,522.0
2015-06-05,HoChiMinhCity,Vietnam,106.6501,10.7501,[106.1501 10.2501 107.1501 11.2501],1.269,0.633,1.735,1.316,1.182,0.612,1.789,1.309,156.0,499.0
2015-06-06,HoChiMinhCity,Vietnam,106.6501,10.7501,[106.1501 10.2501 107.1501 11.2501],1.281,0.649,1.735,1.311,1.234,0.639,1.787,1.326,186.0,517.0
2015-06-07,HoChiMinhCity,Vietnam,106.6501,10.7501,[106.1501 10.2501 107.1501 11.2501],1.318,0.678,1.762,1.379,1.234,0.627,1.775,1.324,189.0,512.0
2015-06-08,HoChiMinhCity,Vietnam,106.6501,10.7501,[106.1501 10.2501 107.1501 11.2501],1.336,0.678,1.762,1.38,1.118,0.608,1.675,1.26,170.0,505.0
2015-06-09,HoChiMinhCity,Vietnam,106.6501,10.7501,[106.1501 10.2501 107.1501 11.2501],1.5,0.793,1.941,1.489,1.178,0.669,1.701,1.268,151.0,522.0
2015-06-10,HoChiMinhCity,Vietnam,106.6501,10.7501,[106.1501 10.2501 107.1501 11.2501],1.5,0.793,1.941,1.489,1.163,0.658,1.663,1.243,151.0,492.0
2015-06-11,HoChiMinhCity,Vietnam,106.6501,10.7501,[106.1501 10.2501 107.1501 11.2501],1.48,0.793,2.115,1.523,1.136,0.651,1.783,1.26,142.0,521.0